Torna al catalogo

CZ-6A DEB

AttivoSSO
NORAD 54269·DEBRIS·🇨🇳 China

Lanciato Nov 11, 2022 da Taiyuan Satellite Launch Center

Loading…

Prossimi Passaggi (prossime 24 ore)

TLE

AggiornatoSource: Space-Track

Epoca: Sep 14, 2026, 21:21 UTC

1 54269U 22151L   26257.88970975  .00000192  00000-0  64274-4 0  9991
2 54269  98.6030 310.7548 0131670  51.3529 309.9359 14.43730192201730

Traccia CZ-6A DEB in tempo reale con AllMySat

Download on the App Store